RH
76 79 82 88 88 86 84 83 80 80 79 74 73 74 75 76 45 46 54 47 61 67 63 67 68 64 66 63 65 63 63 64 67
79 82 86 89 88 86 81 79 77 80 79 74 76 76 78 43 41 43 48 52 61 60 61 60 64 66 64 66 62 62 64 65 64
80 85 90 89 87 84 81 79 77 79 78 75 78 80 76 48 43 47 56 67 64 63 56 63 63 64 65 66 64 62 63 65 66
86 88 90 89 87 85 84 83 80 79 79 79 82 83 77 42 42 42 49 71 64 61 62 61 60 63 66 62 61 63 65 66 66
90 92 91 88 88 87 86 86 84 82 84 84 86 84 80 41 46 44 48 71 59 60 63 61 62 63 65 65 62 66 67 67 66
76 77 93 90 90 88 87 86 87 88 90 88 88 86 41 41 42 41 75 67 64 62 65 65 65 66 67 67 67 67 69 69 69
58 79 94 92 92 90 88 89 90 86 51 58 81 44 40 42 45 42 72 65 63 66 68 68 68 68 68 68 67 68 69 69 70
73 87 92 82 88 69 72 72 60 52 43 45 44 38 39 42 43 58 75 69 64 68 70 70 69 69 68 68 67 68 69 69 69
60 61 81 75 68 62 64 56 50 50 44 41 40 39 40 42 44 56 81 75 64 67 70 70 70 70 69 68 68 68 68 68 68
63 64 79 69 64 57 64 55 49 48 45 41 43 44 43 45 46 45 85 81 75 67 69 70 71 70 69 68 68 69 68 68 67
71 66 76 65 65 62 62 56 50 48 44 42 44 45 44 44 47 46 57 85 80 75 68 68 67 70 70 70 70 70 70 70 70
74 71 68 75 65 63 63 56 51 48 45 42 44 44 44 48 49 48 46 61 89 83 72 67 66 67 67 68 71 72 75 75 74
79 82 77 74 77 67 73 62 57 51 48 45 45 46 47 47 48 47 47 49 48 80 86 82 72 72 70 70 70 74 76 78 78
86 86 81 81 80 83 76 70 62 55 48 46 45 48 49 51 48 47 47 48 52 48 83 90 90 88 81 76 72 73 76 80 81
88 79 88 83 89 88 80 70 60 55 53 47 45 48 50 51 51 50 45 46 52 51 52 57 64 91 87 83 80 77 77 79 80
49 89 85 87 90 88 81 73 67 60 58 57 55 50 52 56 53 52 48 47 48 47 48 50 49 54 86 86 82 81 79 79 79
49 55 75 83 92 90 88 80 77 62 58 66 56 61 58 58 57 53 51 49 48 49 50 50 52 52 52 62 87 86 82 80 78
52 54 59 77 85 94 92 84 78 70 62 64 68 61 60 61 50 55 52 51 52 51 52 52 51 51 52 66 74 89 87 82 77
51 55 58 60 72 93 87 85 80 76 80 78 61 67 52 67 53 53 52 49 49 51 53 53 53 54 55 69 85 89 88 82 76
52 56 59 66 76 76 87 84 82 74 76 73 71 68 74 73 60 49 57 50 50 50 52 52 51 55 56 60 74 90 89 82 79
Wind_Speed
12 11 9 10 12 14 15 15 15 13 14 16 16 14 10 9 11 10 10 9 11 14 13 12 11 13 12 13 14 13 12 15 14
12 10 9 12 13 14 15 16 16 14 13 15 15 11 7 9 9 9 10 11 11 12 12 12 9 12 11 12 11 10 13 12 13
12 11 12 13 14 15 15 16 15 15 14 13 12 10 6 7 10 9 8 12 12 10 10 11 10 10 11 10 10 10 9 12 11
10 10 12 13 14 14 14 14 14 14 14 13 10 7 7 8 7 8 8 9 12 11 11 8 8 10 10 8 8 9 8 8 9
12 11 13 14 13 13 13 12 13 12 12 12 10 6 4 7 8 5 7 10 10 10 10 10 9 8 7 7 6 7 7 7 7
13 12 12 12 13 12 11 10 12 10 10 9 9 10 6 6 5 4 9 10 10 9 9 8 8 8 6 5 5 5 4 5 5
12 12 13 13 12 13 12 10 11 10 8 7 7 7 6 5 5 4 7 9 10 9 8 7 7 6 5 4 4 3 3 2 3
7 6 7 10 11 9 10 10 9 12 7 8 8 7 7 5 4 6 6 8 9 9 8 7 7 6 5 4 3 2 1 1 1
9 8 9 9 9 12 10 8 10 11 10 10 9 8 7 5 4 7 5 6 9 9 9 8 7 6 5 4 3 3 3 3 4
10 9 9 10 11 11 10 10 10 11 11 10 9 9 9 8 5 4 7 5 5 9 9 9 8 7 6 5 5 5 5 6 6
11 12 9 11 10 9 10 11 10 10 10 11 10 10 9 9 8 6 8 6 6 8 10 10 9 9 8 7 7 6 7 8 9
13 12 12 9 11 13 11 12 10 10 10 12 11 9 10 8 9 8 6 9 8 8 11 11 10 10 9 9 9 10 12 13 12
12 11 12 11 9 11 9 10 10 10 10 10 9 9 9 10 9 9 7 7 7 9 9 9 11 11 11 12 12 14 13 13 12
11 10 11 12 11 9 10 10 10 10 10 10 10 9 9 10 8 10 10 10 8 6 11 10 9 9 10 12 13 12 11 8 11
9 12 11 13 11 10 11 14 12 10 9 9 10 9 9 9 9 10 9 10 10 9 9 8 10 13 13 12 13 13 13 11 9
16 9 14 13 12 14 14 15 16 11 9 8 8 9 10 10 9 8 8 10 10 10 10 7 7 7 12 12 13 13 13 12 11
15 16 14 15 11 14 14 15 9 10 12 9 9 8 9 10 10 9 10 12 9 10 11 11 11 8 6 8 11 11 11 12 12
17 17 15 13 12 10 14 15 16 12 12 10 6 6 6 7 10 14 11 12 10 10 11 12 11 10 8 6 8 9 9 11 10
15 16 16 15 13 11 14 12 14 14 12 9 10 3 4 5 7 8 13 13 13 13 9 10 11 10 8 7 1 7 7 6 7
17 15 16 15 11 14 12 14 14 13 13 13 12 10 4 3 4 8 10 11 11 11 11 10 9 9 8 7 7 9 8 9 8
Wind_Direction
183 179 165 134 131 136 134 124 127 132 135 135 132 129 144 200 122 124 113 89 113 102 94 97 98 92 80 85 75 71 74 72 62
186 182 157 145 142 141 137 134 143 140 139 140 135 136 177 141 125 125 119 117 120 108 106 103 94 90 84 85 89 77 72 66 69
188 177 150 151 150 147 147 147 149 146 145 145 141 143 193 155 129 137 134 121 121 111 112 105 102 91 93 82 80 85 75 68 61
166 152 156 158 157 153 153 152 153 152 149 148 147 149 221 146 136 140 135 120 130 129 118 118 106 101 104 102 89 83 74 72 67
171 162 165 167 163 160 160 159 155 152 149 151 144 143 209 157 147 153 119 142 144 138 135 128 123 115 116 97 99 84 68 60 56
180 188 155 169 159 154 158 170 160 144 143 150 147 167 193 165 170 167 141 148 150 144 138 132 133 131 116 113 102 89 77 67 55
202 179 167 168 160 156 160 158 140 173 168 166 166 208 185 181 180 149 176 165 160 151 143 142 138 140 136 138 128 111 97 62 49
201 181 181 179 174 177 171 167 184 197 186 173 192 206 191 188 184 130 211 189 169 156 159 160 160 159 165 167 161 155 147 264 321
195 197 187 188 190 190 192 193 197 197 196 192 200 201 194 199 187 148 214 209 187 176 171 175 179 181 185 191 195 217 226 249 271
206 197 192 195 194 194 193 203 195 202 199 199 201 202 205 203 188 190 176 232 204 192 185 189 197 200 202 209 216 232 249 262 268
204 199 191 197 199 204 196 205 201 202 202 202 202 204 208 206 207 205 178 207 212 204 204 201 208 211 214 222 226 242 255 261 265
206 207 199 202 198 198 209 209 202 205 201 208 201 207 208 213 209 208 215 187 212 216 224 216 220 223 227 233 227 222 233 240 247
213 207 202 197 190 203 192 210 204 206 206 202 204 205 211 212 215 211 212 216 210 201 228 247 228 228 233 237 243 236 238 247 250
224 211 203 190 195 194 185 192 201 201 205 207 203 209 209 213 214 218 215 216 225 220 178 224 247 260 253 253 257 265 270 265 255
218 216 204 192 192 190 194 201 200 194 198 205 206 210 215 216 214 218 220 221 216 222 227 206 225 228 245 250 258 269 277 283 285
219 208 216 207 192 193 191 200 200 194 192 194 201 216 223 220 221 221 221 217 220 223 221 225 230 205 220 240 247 257 267 274 275
221 221 217 209 200 193 189 192 188 197 189 185 188 207 211 224 224 224 223 224 215 219 223 225 227 232 227 224 216 244 263 268 266
221 224 226 218 213 199 190 190 186 192 195 199 164 202 216 182 206 218 220 220 219 221 218 224 230 234 236 225 221 229 248 257 255
220 223 225 231 215 212 191 189 196 194 190 202 213 251 160 191 182 218 218 219 221 217 219 223 226 230 233 225 297 181 227 228 217
217 219 221 226 227 217 195 193 199 204 194 196 199 200 218 280 269 215 205 214 217 221 222 219 222 216 219 213 191 204 206 210 211